TimeAKST,TemperatureF,Dew PointF,Humidity,Sea Level PressureIn,VisibilityMPH,Wind Direction,Wind SpeedMPH,Gust SpeedMPH,PrecipitationIn,Events,Conditions,WindDirDegrees,DateUTC
12:53 AM,6.1,1.9,83,30.24,10.0,ENE,11.5,-,N/A,,Clear,70,2013-03-04 09:53:00
1:53 AM,9.0,3.9,80,30.23,10.0,East,11.5,-,N/A,,Clear,80,2013-03-04 10:53:00
2:53 AM,10.0,5.0,80,30.22,10.0,East,15.0,-,N/A,,Clear,80,2013-03-04 11:53:00
3:53 AM,10.9,6.1,81,30.22,10.0,East,15.0,-,N/A,,Clear,80,2013-03-04 12:53:00
4:53 AM,14.0,8.1,77,30.20,10.0,East,13.8,-,N/A,,Clear,80,2013-03-04 13:53:00
5:53 AM,14.0,8.1,77,30.19,10.0,East,13.8,-,N/A,,Clear,90,2013-03-04 14:53:00
6:53 AM,15.1,8.1,74,30.18,10.0,East,13.8,-,N/A,,Clear,80,2013-03-04 15:53:00
7:53 AM,10.9,6.1,81,30.17,10.0,East,11.5,-,N/A,,Clear,80,2013-03-04 16:53:00
8:53 AM,16.0,9.0,74,30.15,10.0,East,15.0,-,N/A,,Clear,80,2013-03-04 17:53:00
9:53 AM,16.0,10.0,77,30.14,10.0,East,13.8,-,N/A,,Clear,90,2013-03-04 18:53:00
10:53 AM,23.0,15.1,72,30.13,10.0,SE,19.6,25.3,N/A,,Mostly Cloudy,130,2013-03-04 19:53:00
11:53 AM,25.0,16.0,69,30.14,10.0,SE,17.3,-,N/A,,Overcast,140,2013-03-04 20:53:00
12:53 PM,25.0,17.1,72,30.12,10.0,SE,15.0,25.3,N/A,,Scattered Clouds,130,2013-03-04 21:53:00
1:53 PM,28.0,19.0,69,30.10,10.0,SE,23.0,29.9,N/A,,Overcast,130,2013-03-04 22:53:00
2:53 PM,27.0,19.0,72,30.09,9.0,SE,24.2,34.5,N/A,,Mostly Cloudy,130,2013-03-04 23:53:00
3:53 PM,28.0,19.9,72,30.08,10.0,ESE,12.7,-,N/A,,Overcast,120,2013-03-05 00:53:00
4:53 PM,27.0,21.0,78,30.06,10.0,ESE,15.0,-,N/A,,Mostly Cloudy,110,2013-03-05 01:53:00
5:53 PM,26.1,21.0,81,30.04,10.0,East,12.7,-,N/A,,Overcast,90,2013-03-05 02:53:00
6:53 PM,26.1,19.9,78,30.04,10.0,ESE,15.0,-,N/A,,Overcast,120,2013-03-05 03:53:00
7:53 PM,24.1,18.0,77,30.03,10.0,ESE,16.1,-,N/A,,Clear,120,2013-03-05 04:53:00
8:53 PM,25.0,19.9,81,30.02,10.0,ESE,16.1,-,N/A,,Mostly Cloudy,120,2013-03-05 05:53:00
10:16 PM,26.6,23.0,86,30.00,10.0,ESE,20.7,27.6,N/A,,Mostly Cloudy,120,2013-03-05 07:16:00
10:53 PM,27.0,24.1,89,29.99,10.0,SE,19.6,29.9,N/A,,Overcast,130,2013-03-05 07:53:00
11:53 PM,26.1,24.1,92,29.98,8.0,SE,20.7,27.6,0.00,Snow,Light Snow,130,2013-03-05 08:53:00